GFSSW_sfc_wetblb_132.txt.gz
Wetbulb
56.09 55.48 55.04 54.93 54.81 54.48 54.16 54.09 54.54 54.50 54.89 54.95 54.32 54.95 54.77 54.72 54.43 49.46 44.39 49.03 51.42 56.70 58.00 52.81 51.59 51.77 45.64 42.26 42.18 40.97 32.61 28.63 32.45 35.94 37.67 42.28 41.62 46.93 48.88 46.57 47.37 63.52 64.55 65.86 69.68
55.06 54.57 54.93 54.89 54.14 53.86 53.86 53.65 53.53 54.23 54.44 55.25 55.07 54.58 53.81 54.41 49.40 45.86 52.15 55.61 57.56 57.67 52.20 49.35 46.69 45.59 41.24 39.83 39.90 37.60 31.01 33.04 38.66 40.34 39.04 42.38 42.58 43.97 45.36 45.35 45.23 55.79 66.16 68.15 68.83
54.73 54.56 54.85 54.24 54.02 53.60 53.57 53.35 53.54 53.30 53.63 54.17 54.99 54.33 54.15 53.56 41.40 42.33 55.60 57.85 58.32 57.71 54.04 51.17 47.74 44.07 37.94 36.23 36.92 36.84 34.98 38.09 39.80 41.89 42.95 42.84 42.32 43.97 42.76 40.76 44.84 46.14 63.03 66.27 67.39
53.72 54.19 53.97 53.75 53.57 53.49 53.16 52.98 52.98 53.36 53.50 53.17 53.34 53.94 54.07 49.14 33.64 43.62 62.70 58.79 59.15 56.58 53.94 49.67 44.87 40.15 37.34 35.11 37.46 32.77 37.55 39.84 40.85 42.53 42.46 42.21 44.89 43.46 42.64 43.97 47.23 55.25 64.13 66.16 66.43
52.79 52.90 53.02 52.67 52.79 52.93 52.87 52.85 52.83 53.02 52.83 52.83 53.00 53.67 51.02 42.56 41.52 49.59 56.95 53.48 57.33 54.34 51.45 48.37 43.00 39.89 36.52 37.06 37.28 33.91 37.15 38.96 41.82 41.07 40.50 42.17 42.02 42.91 41.91 45.99 48.03 47.65 55.30 65.08 65.93
51.81 51.92 51.77 51.77 51.75 51.96 52.41 52.43 52.57 52.18 52.12 52.07 52.87 53.22 47.69 37.37 48.78 50.49 49.48 49.63 52.95 52.06 50.77 49.30 45.09 42.40 38.61 37.07 37.81 38.85 39.16 40.40 39.92 39.96 40.30 40.47 41.63 42.14 43.83 46.41 46.71 46.98 52.05 62.64 65.52
51.60 51.47 51.58 51.77 51.75 51.81 52.34 52.14 51.93 52.07 52.00 52.49 52.65 50.77 44.88 40.63 49.66 49.97 48.93 46.22 51.09 53.68 49.84 51.84 48.70 45.45 41.95 37.13 40.91 39.38 34.90 37.89 38.28 39.77 39.70 40.17 38.97 39.66 44.65 45.90 45.25 48.82 60.52 63.28 65.04
52.47 52.30 51.57 51.91 52.43 52.53 52.47 52.41 52.10 52.20 52.56 52.88 52.82 49.35 41.03 48.80 50.69 48.57 48.95 47.09 48.74 48.35 47.80 48.31 51.99 45.04 40.20 40.93 40.27 35.72 34.27 32.33 36.40 39.36 40.09 40.30 34.40 41.11 44.18 44.35 44.71 45.66 58.10 62.11 63.03
52.07 51.90 51.15 51.00 52.13 52.47 52.26 51.93 52.47 51.99 52.66 52.76 48.44 46.34 37.80 50.10 46.93 49.16 48.90 45.19 46.61 47.56 47.67 49.88 50.59 45.20 42.59 36.61 32.58 33.50 29.22 29.75 34.59 38.98 39.71 38.20 33.85 41.57 43.68 43.60 43.92 43.78 54.44 60.52 60.39
51.07 51.13 51.24 50.88 51.67 51.95 51.69 50.92 50.43 49.73 50.00 50.12 48.90 42.22 42.46 41.00 48.26 50.56 50.59 48.16 45.10 45.16 42.91 42.83 44.42 40.07 38.65 35.26 30.86 29.52 31.56 33.92 34.23 37.70 37.92 35.10 34.47 41.21 41.55 42.87 43.57 43.28 45.00 57.93 59.31
50.32 50.92 50.86 51.26 51.53 51.22 49.06 44.25 35.72 35.45 41.04 39.50 40.51 41.27 43.41 47.92 51.01 49.06 50.03 46.34 45.54 42.20 35.35 40.48 39.80 35.85 38.39 40.41 39.52 37.04 34.92 34.41 36.67 40.87 37.63 35.32 35.55 38.44 40.04 39.24 40.72 42.06 42.79 43.88 56.35
50.15 50.18 50.79 51.08 50.28 50.54 46.69 38.14 39.66 39.47 33.30 39.94 39.69 41.28 45.31 45.98 40.43 43.63 49.26 43.20 41.15 37.73 38.20 37.77 36.09 40.92 42.37 41.73 39.63 37.04 34.97 33.95 37.22 39.79 36.95 35.60 35.31 38.42 38.88 39.58 40.62 42.00 42.41 43.59 44.98
50.60 50.75 50.79 50.81 50.51 44.02 38.67 40.05 43.77 41.41 32.39 35.37 39.27 38.92 40.15 42.92 38.93 40.19 45.07 44.54 40.42 38.95 35.70 34.67 38.83 43.45 40.99 38.88 36.75 37.08 35.66 34.53 35.74 38.27 37.61 35.81 33.73 36.66 40.21 39.80 41.11 42.00 43.08 43.70 44.51
50.48 50.67 50.20 50.36 44.41 40.07 39.58 44.68 42.01 41.23 25.58 29.11 36.01 40.81 43.68 45.60 40.10 46.79 46.95 42.52 41.43 37.72 38.05 36.72 41.80 40.95 39.83 38.15 38.53 32.96 40.56 38.63 37.95 34.25 28.97 35.38 26.37 33.34 37.04 38.93 40.42 41.18 41.44 41.87 43.57
50.51 50.12 50.06 50.03 44.73 39.85 42.17 41.45 43.49 40.16 15.51 33.44 39.39 47.41 47.19 42.55 43.19 44.61 50.54 44.32 36.87 38.24 40.87 37.07 39.23 39.60 37.99 39.28 41.79 36.82 42.74 40.49 40.20 33.73 29.75 30.79 29.00 32.56 36.08 36.81 39.75 42.14 46.22 47.98 48.89
50.72 50.77 50.21 44.66 41.79 42.38 43.64 44.60 42.03 29.95 18.42 31.80 39.03 38.91 38.41 40.74 42.28 45.44 45.60 46.56 44.57 38.13 40.94 39.77 45.55 43.30 42.34 43.76 43.54 43.82 41.24 40.18 36.18 30.78 24.48 29.72 29.82 30.11 33.36 39.99 41.84 44.90 49.12 51.10 51.46
50.47 50.49 47.58 46.43 39.05 41.49 42.58 41.97 29.46 21.90 34.12 31.00 33.56 37.25 36.31 36.60 39.32 39.96 39.35 38.20 35.23 31.43 31.67 38.91 40.96 44.03 45.97 40.58 43.56 41.80 37.49 26.31 23.56 22.31 23.19 31.60 29.74 31.00 41.45 44.41 45.19 45.31 48.36 50.27 52.10
49.84 49.06 43.68 44.25 43.39 42.27 42.18 35.65 22.22 29.12 30.37 37.21 36.80 35.56 33.16 37.88 38.71 38.82 34.89 35.38 39.32 38.63 33.65 32.39 31.39 40.63 45.04 41.91 39.39 37.73 35.73 24.35 19.95 20.49 23.18 32.24 27.59 32.74 44.99 47.64 49.85 49.76 50.06 51.16 51.60
48.88 40.86 39.24 40.91 42.67 42.97 38.02 25.53 26.53 32.64 35.60 34.78 34.53 31.75 31.96 36.30 37.02 38.14 34.42 35.62 39.82 41.48 34.85 34.73 33.97 43.50 44.75 44.49 43.23 39.19 34.04 35.45 28.03 27.60 26.08 29.77 37.04 43.46 46.41 46.95 49.29 48.59 49.84 49.86 50.59
43.15 35.90 36.78 42.88 43.81 40.60 31.42 26.75 33.81 35.85 37.43 37.17 30.58 33.10 29.17 32.02 33.50 35.99 34.34 39.06 38.28 42.54 44.95 39.47 34.63 41.71 43.96 45.62 45.24 41.34 40.96 32.49 30.33 23.04 21.56 31.60 33.33 35.71 43.01 45.74 48.16 47.73 48.46 50.30 50.92
37.31 32.75 39.06 44.50 41.68 34.86 27.69 30.94 32.89 37.37 38.62 34.88 34.26 33.52 32.84 33.18 34.74 34.52 35.08 39.69 41.27 42.08 43.67 42.83 38.47 37.64 42.67 40.56 38.39 37.98 36.92 35.67 33.17 29.98 26.15 27.46 32.09 41.72 43.76 45.28 46.93 48.06 49.29 47.90 47.50
37.84 28.48 39.78 41.54 33.08 33.92 31.02 33.52 37.02 36.91 39.32 37.41 37.38 36.18 34.27 33.38 33.48 34.43 35.08 39.25 45.53 44.27 40.40 43.29 38.86 33.02 34.84 42.12 44.47 40.05 37.42 32.94 26.74 28.94 29.86 29.32 35.66 45.45 45.58 45.70 47.47 47.45 45.64 44.07 43.57
35.59 35.48 40.60 38.82 29.24 30.62 33.97 34.14 36.90 36.16 37.21 36.88 35.02 35.34 37.50 36.53 32.91 36.07 37.20 44.76 45.70 43.50 40.98 43.66 38.24 32.10 34.63 38.80 42.41 38.23 39.37 36.92 35.04 34.83 30.84 28.24 33.93 46.56 47.86 47.92 47.53 44.24 43.00 43.08 43.07
36.48 29.53 33.82 34.61 35.46 33.70 31.96 32.22 33.04 38.45 37.50 38.44 38.33 38.47 34.87 35.09 37.64 35.94 37.41 44.04 46.19 45.69 47.35 46.50 37.61 31.77 29.34 33.06 37.35 35.73 38.56 38.80 37.31 30.84 32.67 32.92 39.44 45.08 45.79 44.94 44.86 42.76 42.97 42.73 42.45
36.42 28.91 36.86 31.37 31.84 33.42 34.36 33.80 31.60 32.92 37.41 38.60 36.97 36.67 36.27 32.22 35.63 35.82 38.47 39.39 43.99 44.13 43.69 44.57 36.23 37.91 39.19 40.70 40.65 38.35 38.32 37.94 36.60 36.71 34.53 37.65 39.98 44.09 45.16 45.39 42.77 42.94 43.17 42.00 41.13
37.11 35.10 37.84 34.29 34.76 32.80 34.26 32.64 31.61 34.43 35.98 35.16 34.79 36.49 37.75 35.66 36.35 34.85 37.56 39.06 40.20 43.05 41.46 43.18 35.43 38.49 37.99 41.92 42.30 38.87 39.90 39.93 39.70 40.73 40.96 41.33 41.73 46.71 46.70 43.64 42.67 42.98 42.14 40.10 39.86
43.32 42.75 38.06 35.20 34.03 32.50 32.86 33.70 33.70 35.85 37.75 38.56 37.74 37.05 36.34 38.90 40.79 41.41 42.10 41.87 41.52 41.17 40.64 40.26 37.56 33.39 33.04 40.50 40.85 35.49 40.25 39.49 41.23 42.73 42.13 38.58 43.22 46.92 42.68 42.46 42.02 41.35 41.56 40.10 39.33

GFSSW_sfc_wetblb_138.txt.gz
Wetbulb
53.69 53.76 53.69 53.59 53.49 53.65 53.79 53.93 54.00 54.12 54.12 54.24 54.31 54.51 54.50 55.20 55.04 54.13 50.93 55.68 56.81 58.92 57.85 58.84 59.18 58.16 58.41 53.28 53.02 52.75 46.64 45.60 47.35 46.38 47.77 50.33 48.82 51.70 52.92 52.45 53.71 56.20 59.48 65.45 70.01
53.24 53.20 53.24 53.10 53.08 52.99 52.94 53.13 53.31 53.38 53.56 53.65 53.97 54.34 54.14 54.31 52.66 50.97 57.52 59.07 57.80 57.83 55.41 54.65 54.35 56.34 54.79 53.78 50.68 48.68 46.33 47.44 50.97 50.70 48.87 49.82 49.76 50.50 50.12 50.73 51.33 53.03 60.05 67.51 71.59
52.93 53.02 53.02 52.83 52.79 52.63 52.75 52.75 53.05 53.04 53.14 53.04 53.10 53.08 53.76 54.29 49.16 49.56 59.09 58.53 57.07 58.21 55.97 55.34 54.60 54.67 51.79 53.07 51.05 49.15 47.16 50.55 50.15 50.60 50.94 49.94 49.78 51.16 49.70 49.55 52.15 51.99 54.42 64.33 67.86
52.44 52.78 52.76 52.61 52.42 52.29 52.37 52.50 52.73 52.97 52.93 53.05 52.72 52.60 52.83 52.41 40.11 56.27 59.49 58.33 58.89 58.11 56.16 53.17 52.82 51.03 49.45 48.63 51.42 46.82 49.78 50.07 50.80 49.95 49.68 48.86 51.10 49.97 50.52 51.59 52.85 53.48 54.42 60.33 66.15
51.98 52.20 52.13 51.99 51.95 52.00 52.04 52.18 52.34 52.54 52.66 52.39 52.49 52.52 50.64 45.82 46.73 58.35 60.44 56.41 55.98 58.73 54.31 51.65 50.48 50.67 47.70 49.58 50.07 47.92 49.21 49.20 50.23 49.76 49.60 50.53 48.89 49.44 50.53 52.36 53.17 53.37 54.01 54.92 59.40
51.42 51.55 51.73 51.44 51.36 51.61 52.20 52.43 52.65 52.57 52.14 52.49 52.88 52.67 47.00 38.29 52.19 53.25 53.93 56.09 55.72 57.09 55.38 53.97 50.79 52.08 49.21 48.98 48.67 49.70 48.59 49.26 49.19 49.59 49.67 47.96 48.71 49.12 50.15 51.73 51.50 52.22 52.93 54.28 55.95
51.72 51.26 51.07 51.37 51.39 52.01 52.53 52.26 52.15 52.53 52.53 53.01 53.42 50.76 45.11 44.10 52.61 53.11 53.49 52.70 53.48 53.40 54.47 56.25 54.24 50.61 49.85 47.66 50.36 49.24 46.22 48.31 48.79 48.81 48.15 49.17 45.77 46.78 50.40 51.15 51.09 52.47 53.39 54.32 56.37
51.41 51.84 51.08 51.32 51.69 51.95 52.40 52.40 52.46 52.55 53.21 53.51 53.43 49.30 41.53 52.34 53.97 51.98 52.28 51.42 53.77 56.76 54.92 56.20 56.10 52.30 50.87 51.18 48.04 46.50 46.89 43.64 48.07 49.27 49.52 47.88 44.28 49.93 51.75 50.98 50.18 51.07 52.01 53.50 55.71
51.74 51.84 51.46 51.69 51.65 52.38 52.46 52.32 52.46 52.95 53.30 53.56 50.31 46.76 41.22 53.24 48.80 51.71 52.51 48.92 50.04 51.99 53.76 54.73 55.04 50.83 50.02 45.99 44.55 45.67 41.75 42.78 45.41 48.62 48.41 47.36 45.24 50.13 51.57 51.57 51.22 51.85 52.25 53.12 55.17
51.90 51.94 51.95 51.71 52.11 52.21 51.87 52.18 53.43 51.82 52.82 52.70 50.08 42.16 45.85 44.09 48.77 51.30 54.49 51.71 48.30 48.21 46.77 48.61 49.75 47.21 47.02 44.47 39.57 42.24 42.13 45.04 44.11 46.99 47.62 46.23 46.59 49.16 50.92 50.95 51.56 52.27 52.74 53.81 54.77
51.44 51.48 51.76 52.14 52.17 51.74 51.41 51.96 47.67 46.93 48.06 42.91 43.60 42.93 44.53 48.42 50.67 48.02 53.22 50.01 47.75 46.71 39.99 44.81 42.49 40.96 44.70 46.60 46.24 46.78 45.31 43.76 45.62 48.43 46.60 46.55 46.99 49.12 50.76 50.84 50.94 51.94 52.85 53.78 55.22
51.38 51.21 51.63 52.16 52.03 51.68 51.59 46.82 45.72 46.27 37.53 45.34 46.29 45.99 47.12 47.02 40.89 45.14 50.18 45.63 43.44 39.93 43.20 40.00 38.63 45.25 47.58 47.78 45.85 45.55 44.75 43.79 46.50 47.65 46.85 46.90 46.57 48.89 50.44 50.64 51.53 52.16 53.14 54.18 55.63
51.60 51.26 51.45 51.52 51.24 51.48 49.21 47.42 51.09 48.20 36.86 41.98 44.62 43.58 45.12 45.78 41.15 42.47 45.50 46.56 43.35 41.09 40.91 40.17 42.46 44.88 45.45 45.41 44.19 44.64 44.06 44.57 44.85 46.59 46.76 46.87 44.96 46.94 49.58 50.92 51.59 52.68 54.11 54.98 55.56
51.15 51.37 51.11 50.93 49.14 50.32 48.15 50.74 50.36 48.09 32.38 38.32 40.75 44.80 45.50 46.56 40.77 47.79 48.24 45.16 41.82 40.17 42.70 42.49 46.10 43.71 42.78 43.40 45.27 41.82 46.74 45.91 44.82 43.40 40.12 46.70 40.18 45.91 48.66 49.03 50.26 51.70 52.98 53.99 55.12
51.00 51.18 50.92 50.30 50.12 47.63 49.06 51.65 49.97 43.47 26.38 40.65 41.30 50.59 47.71 42.23 43.79 44.45 48.45 42.17 38.46 39.52 39.78 40.28 42.29 42.20 41.14 43.18 46.58 43.74 47.46 45.27 45.08 43.49 43.52 42.95 41.76 46.01 48.84 47.32 49.04 51.15 52.57 54.13 55.44
50.75 50.71 50.78 51.43 51.34 50.86 51.54 51.23 48.38 33.59 26.53 37.72 42.21 40.93 41.96 43.65 43.99 45.14 43.61 44.85 42.74 39.59 41.61 42.55 46.59 44.93 45.04 46.52 47.21 48.21 45.27 45.24 45.18 43.38 36.63 42.20 41.96 44.08 45.19 47.73 49.40 51.22 53.89 56.30 58.14
50.57 50.83 50.32 50.84 46.94 51.80 51.38 47.62 35.37 30.63 40.31 34.46 36.00 39.57 39.78 39.83 41.01 42.57 41.00 39.15 34.73 31.81 33.72 39.29 41.46 45.52 46.73 42.68 45.74 44.76 42.25 35.90 34.25 35.74 36.71 44.42 41.50 45.76 49.77 51.57 50.63 53.07 56.52 58.09 59.39
49.72 49.53 51.11 50.67 52.72 51.62 50.51 42.71 30.50 35.76 34.78 38.23 37.52 38.10 36.35 40.40 40.28 39.89 39.23 36.83 39.34 37.64 33.88 33.64 31.93 41.35 45.68 43.30 42.09 43.09 43.35 38.52 31.93 34.15 38.13 44.42 39.32 44.84 53.59 54.78 55.63 57.16 56.15 57.23 59.29
48.94 52.31 50.94 51.89 52.43 52.57 46.58 36.76 31.77 34.53 36.30 34.35 35.33 36.23 37.48 38.85 38.70 38.54 38.18 37.42 38.18 39.23 35.56 32.88 35.17 43.75 45.40 47.09 45.92 42.58 39.29 46.84 42.21 43.15 39.76 40.83 44.86 50.22 53.22 50.57 52.39 53.31 53.53 52.83 54.10
49.05 48.61 49.00 52.68 52.78 50.23 42.83 31.75 35.08 38.48 37.84 37.05 31.80 35.67 32.80 36.21 36.15 36.92 37.80 41.05 37.25 42.48 43.54 39.95 32.46 42.26 45.37 47.36 46.73 44.48 47.33 39.27 42.66 35.24 34.40 38.33 40.95 42.92 49.17 47.58 49.82 50.36 50.82 52.16 54.47
48.87 45.23 48.95 53.12 51.96 46.24 34.02 33.92 36.79 41.37 39.96 35.47 35.04 33.96 35.19 34.48 34.80 35.00 37.18 39.58 39.95 41.23 42.28 41.08 39.72 39.18 42.38 41.36 41.98 42.94 41.70 43.78 44.61 42.68 37.38 35.22 40.19 51.14 51.53 50.22 49.29 49.87 51.59 53.83 55.14
47.02 41.99 49.82 51.98 42.10 40.12 35.13 35.40 38.71 39.84 42.35 39.02 38.30 35.89 34.47 34.63 34.93 36.36 36.42 36.04 41.93 41.91 36.37 41.88 40.58 36.57 38.97 46.38 47.61 47.14 44.21 44.72 39.21 38.87 42.34 41.83 42.40 53.35 53.76 50.85 50.47 49.92 51.49 52.97 53.75
43.23 44.37 50.91 49.87 34.12 33.64 37.09 37.55 39.57 39.00 39.50 38.37 36.56 36.51 36.98 34.74 32.16 38.12 38.31 41.28 42.93 41.74 40.14 41.17 39.90 35.36 34.04 40.34 46.68 43.44 44.59 45.74 45.44 45.30 41.36 39.20 41.50 49.99 49.89 48.26 48.63 47.82 48.76 49.80 50.68
43.90 38.88 44.54 45.96 42.07 35.90 34.31 36.61 35.56 41.45 39.73 39.83 37.56 39.27 36.78 35.09 38.19 36.58 37.02 40.63 42.52 42.92 46.40 43.53 42.65 38.59 34.51 39.72 43.91 40.35 43.92 45.38 45.32 41.14 42.19 43.28 43.15 45.73 45.60 44.93 45.85 46.38 47.52 48.14 49.00
43.35 39.23 38.89 35.57 37.12 36.34 39.04 36.54 34.49 34.23 38.74 40.07 37.69 36.71 35.22 32.36 35.17 35.76 37.33 39.09 41.82 44.92 43.26 43.95 40.00 38.95 41.43 44.59 45.13 44.04 42.36 43.60 42.50 43.72 42.16 45.86 45.04 45.44 45.35 45.52 46.33 47.46 48.01 48.77 49.85
38.09 38.43 39.59 35.87 38.06 37.67 37.49 36.03 34.12 35.55 36.33 36.76 34.83 36.95 37.32 35.18 36.44 33.35 37.07 38.06 37.42 41.31 38.82 45.73 40.69 41.56 40.90 43.94 43.05 41.72 43.47 43.72 43.76 44.60 46.34 48.18 45.78 48.46 47.89 46.96 46.22 47.38 49.21 49.45 50.27
43.93 43.82 40.29 37.07 38.95 36.42 36.86 35.27 35.45 37.50 38.74 40.34 38.87 37.40 36.60 38.67 40.17 41.15 42.88 42.51 41.44 40.16 36.98 41.38 43.58 40.20 35.20 41.27 40.38 36.71 42.50 43.26 44.89 47.58 49.07 45.82 45.50 46.71 43.84 44.65 45.98 47.51 49.15 49.38 49.36

GFSSW_sfc_wetblb_141.txt.gz
Wetbulb
53.99 53.84 53.92 53.76 53.63 53.48 53.69 53.71 53.69 53.84 53.94 54.13 54.26 54.34 54.47 54.95 55.10 54.52 51.38 56.70 59.26 61.08 56.67 57.89 59.42 56.08 57.46 57.07 56.93 54.81 48.40 46.75 48.29 48.86 50.71 54.86 51.71 54.45 55.70 54.04 55.37 56.41 57.30 67.34 71.74
53.36 53.45 53.47 53.49 53.28 53.21 53.09 53.16 53.33 53.46 53.78 53.88 53.86 53.78 53.78 53.86 52.45 50.51 57.08 61.65 62.62 59.09 56.28 53.56 52.90 56.95 53.29 54.72 55.86 51.99 48.01 48.48 52.04 52.86 52.17 53.23 53.08 52.80 52.01 52.03 53.12 54.69 58.29 66.26 70.51
53.12 53.03 53.03 52.88 52.88 52.66 52.74 52.93 52.89 53.12 53.32 53.41 53.49 53.59 53.27 53.64 48.98 51.95 60.77 61.31 61.57 59.50 55.54 55.45 54.28 55.51 52.63 53.87 54.62 52.00 48.03 51.70 52.26 53.84 54.16 52.47 52.70 53.77 51.93 51.14 52.98 52.98 55.75 63.00 68.22
52.78 52.75 52.75 52.76 52.76 52.48 52.58 52.75 52.94 53.22 53.16 53.18 53.20 52.96 53.50 52.23 40.84 58.85 60.51 59.77 58.10 58.45 56.18 54.57 53.73 51.53 51.66 50.56 54.41 49.42 51.14 51.51 52.73 53.84 52.69 51.54 53.43 52.13 52.66 53.26 55.91 55.76 56.61 59.30 64.20
52.09 52.46 52.31 52.22 52.26 52.30 52.58 52.69 52.80 52.84 52.92 52.94 53.04 52.98 51.74 47.20 46.90 54.20 60.21 59.13 60.60 58.15 54.98 54.41 52.02 51.49 49.50 51.71 52.82 51.51 51.60 52.20 52.63 52.96 52.73 52.32 51.39 51.80 52.46 54.75 55.96 55.34 55.67 55.57 61.66
51.76 51.96 51.93 52.12 52.24 52.47 53.14 53.22 53.32 53.42 53.23 53.08 53.60 53.31 48.33 40.39 52.88 53.64 53.68 55.72 58.04 56.85 57.41 56.05 53.20 53.83 51.59 51.78 50.83 52.75 52.24 51.95 52.27 51.88 52.24 50.16 50.52 51.57 52.64 55.19 54.66 54.71 54.65 55.28 56.35
52.42 52.21 52.08 52.15 52.86 53.22 53.32 52.97 52.89 53.26 53.38 53.78 54.18 52.02 46.46 45.34 53.63 54.08 53.24 52.39 53.43 53.61 53.39 58.10 56.74 52.77 52.80 51.09 53.61 52.49 49.66 50.85 51.08 51.22 50.63 51.81 48.27 49.20 53.13 54.27 53.25 53.27 54.29 54.70 55.48
52.54 52.43 52.31 52.48 53.12 53.43 53.37 53.30 53.05 53.30 54.04 54.55 54.42 51.88 43.43 54.06 55.47 53.49 53.90 52.05 53.55 54.75 53.32 55.21 58.25 54.01 51.92 53.14 50.51 48.72 49.32 45.93 50.24 50.38 50.89 50.27 45.65 50.63 53.32 52.96 52.19 52.65 53.88 54.68 55.71
52.40 52.33 52.39 52.16 52.81 53.26 53.09 52.72 53.42 53.96 54.13 54.58 52.84 48.68 44.74 55.26 50.25 53.19 53.63 49.78 51.04 52.10 54.55 55.78 53.87 52.80 51.91 47.46 45.37 47.04 43.12 44.57 47.53 51.50 50.14 48.79 46.49 51.01 54.05 52.76 52.41 53.00 53.83 54.02 55.10
52.45 51.81 52.28 52.47 52.81 52.78 52.33 52.20 54.09 54.72 53.46 54.76 53.17 45.49 49.41 46.77 49.60 51.18 52.32 53.01 50.34 49.06 47.76 50.85 50.87 47.62 48.55 46.07 40.76 43.05 43.72 46.17 45.48 49.94 49.88 48.61 47.83 51.51 52.99 52.70 52.88 53.62 53.82 53.97 54.56
51.91 51.36 52.10 52.37 52.70 51.98 51.88 54.41 49.96 49.38 51.25 45.91 46.89 46.60 47.35 50.91 51.82 49.41 50.97 47.13 50.62 46.60 41.32 45.85 43.84 42.58 46.16 47.78 47.65 48.20 47.27 45.89 48.36 50.38 48.22 48.02 48.76 50.10 52.53 52.99 52.63 53.68 54.39 54.51 55.02
51.34 51.81 52.31 52.22 52.16 51.85 52.29 49.92 48.43 48.86 41.38 47.59 47.61 47.87 50.16 50.82 44.75 48.28 49.81 44.64 44.14 40.10 43.67 41.15 38.45 45.52 48.72 48.98 47.59 47.13 46.93 47.19 49.23 50.81 48.76 48.27 47.97 50.69 52.27 52.27 53.25 53.61 54.46 54.79 55.97
51.50 51.81 52.10 51.92 51.89 52.46 52.19 50.79 53.63 51.36 40.75 44.32 48.21 46.14 47.56 49.15 44.46 44.85 47.45 45.39 42.69 41.12 40.77 39.71 41.04 44.69 45.85 46.97 45.93 46.40 45.81 47.32 46.88 48.77 50.23 48.11 46.87 49.37 51.94 53.01 53.56 54.25 55.37 55.74 55.82
51.29 51.46 51.55 51.73 50.15 53.66 51.61 53.68 53.75 50.75 34.87 41.81 43.15 46.03 47.89 48.77 43.47 49.91 49.34 45.33 43.44 40.95 42.26 42.12 44.62 43.61 42.42 43.58 46.56 43.71 48.84 48.56 46.96 46.20 41.87 48.19 41.41 47.89 50.61 50.77 52.14 53.28 54.38 55.37 56.39
51.13 51.27 51.05 50.82 51.76 50.90 52.16 54.57 53.25 50.07 29.23 42.26 43.08 51.97 49.67 44.09 46.28 44.47 49.90 44.60 39.51 41.15 42.35 40.13 42.73 42.92 41.65 42.51 46.70 45.49 49.08 48.16 48.37 46.71 44.97 45.01 42.95 47.51 50.31 49.10 50.72 52.84 54.02 55.59 56.74
50.75 51.02 51.09 53.81 53.86 53.60 54.42 54.62 49.13 35.82 29.24 40.22 43.40 42.48 43.77 45.71 44.54 46.85 44.86 46.77 43.12 40.15 43.04 41.92 47.12 44.88 44.73 45.78 46.51 48.78 47.10 47.53 48.13 46.69 38.57 45.40 43.72 44.89 47.88 49.92 51.58 53.04 53.99 55.20 56.01
50.42 50.55 50.31 53.08 50.08 54.73 54.50 50.35 37.16 33.59 42.85 37.09 37.73 42.72 42.06 41.27 43.50 43.83 41.75 37.70 35.85 31.34 34.36 39.65 40.16 45.10 46.83 43.60 46.00 45.76 43.80 37.70 36.62 36.90 38.41 46.87 43.38 47.11 51.63 52.54 52.66 52.68 53.51 55.16 56.40
49.41 49.15 53.65 54.21 55.09 55.00 53.37 42.30 33.82 38.99 38.03 40.85 40.36 41.34 37.47 42.41 41.52 40.90 39.93 37.21 38.26 38.01 35.36 33.71 32.41 40.79 46.09 44.03 42.78 43.93 44.29 39.15 32.49 34.90 39.18 46.26 41.73 44.54 54.10 55.32 54.52 53.96 56.00 57.77 58.62
48.56 55.50 53.80 53.57 55.83 54.79 49.05 38.90 34.29 37.49 39.71 36.70 36.99 37.62 38.54 40.81 39.27 40.08 39.92 37.87 38.46 40.13 35.44 35.17 35.74 44.25 45.30 47.98 46.18 44.04 40.55 48.03 42.44 43.77 41.13 43.91 47.04 53.21 55.10 55.10 56.81 57.40 58.03 58.57 59.23
50.42 52.26 52.52 55.12 56.53 52.96 45.56 34.40 37.85 40.95 41.54 40.27 33.53 37.84 33.93 36.77 35.08 36.55 38.58 41.15 38.41 42.77 42.77 41.07 34.64 42.08 45.04 47.50 47.86 45.95 48.69 41.24 43.35 36.00 34.95 41.15 43.69 46.01 49.78 52.35 54.14 54.49 53.81 57.07 60.39
51.72 48.53 52.48 55.92 55.53 48.18 40.06 37.48 39.84 43.14 42.90 38.20 37.10 35.37 35.70 34.24 34.77 35.71 37.60 39.54 39.87 39.76 43.41 42.38 41.05 40.13 43.11 41.51 42.08 43.64 41.75 45.37 44.82 43.53 39.16 37.70 42.36 52.64 51.91 52.95 50.96 51.41 53.03 55.68 57.66
50.68 44.33 53.21 55.37 44.89 44.23 39.90 39.55 40.44 40.99 43.70 41.25 40.42 37.78 35.07 35.41 34.67 35.57 37.06 36.23 41.21 41.77 38.82 41.76 40.83 36.72 39.94 46.22 47.37 46.02 44.73 45.94 41.10 40.46 43.41 43.23 44.26 54.25 54.77 53.65 52.05 52.43 55.57 57.81 59.05
47.26 47.72 53.57 53.07 38.62 38.32 40.34 39.77 42.13 40.30 41.01 40.32 38.53 39.66 38.08 35.75 33.21 38.33 38.53 43.41 43.03 41.42 38.84 42.38 38.24 35.08 36.94 40.64 42.08 42.48 46.22 46.13 47.25 47.37 42.72 40.38 43.42 53.46 52.11 51.02 52.30 52.83 54.11 56.53 57.88
46.87 41.87 46.36 48.32 47.47 40.42 37.45 38.76 37.52 43.57 41.72 41.83 40.51 40.81 37.87 35.67 38.48 36.77 37.59 41.42 43.01 42.75 44.86 44.29 40.63 40.37 35.29 38.40 42.10 41.06 43.55 46.31 46.58 42.17 42.41 43.35 43.26 46.23 47.50 48.45 50.39 51.02 52.90 54.07 55.15
46.39 42.49 41.93 38.96 40.22 40.29 40.74 39.20 36.82 35.91 40.95 41.98 39.36 38.51 37.35 32.77 35.31 36.87 38.15 39.00 41.97 44.22 43.87 40.84 39.36 41.37 40.97 43.69 44.38 43.76 43.16 45.53 44.54 46.12 44.12 45.07 44.25 45.49 46.47 47.28 49.17 50.79 51.87 52.26 52.85
42.29 39.26 42.57 39.94 43.28 43.28 40.37 39.08 35.95 38.02 38.88 38.36 36.59 39.55 39.93 36.82 36.80 34.63 37.96 38.26 37.69 41.52 40.40 43.43 41.38 42.99 36.67 41.89 44.85 42.80 44.84 45.22 46.25 46.27 46.43 48.54 45.10 49.65 48.41 48.79 48.33 49.48 50.70 51.32 51.60
45.44 45.32 41.10 40.58 43.31 41.77 40.95 38.11 38.17 40.52 42.16 42.67 41.26 39.31 38.63 40.26 43.18 44.41 45.13 45.37 43.57 40.41 40.45 41.23 43.10 38.12 35.14 42.57 43.10 41.13 44.50 44.76 45.96 48.11 46.05 43.73 44.65 46.90 45.83 46.66 48.00 49.95 50.88 51.21 51.98

GFSSW_sfc_wetblb_144.txt.gz
Wetbulb
54.00 53.94 53.81 53.64 53.51 53.57 53.49 53.69 53.67 53.82 53.95 54.08 54.21 54.29 54.54 54.32 54.47 52.05 47.88 53.57 57.92 61.39 59.42 56.15 56.55 54.90 54.13 56.03 57.25 55.89 47.53 45.54 46.44 47.50 48.97 53.44 52.68 55.90 56.49 55.16 56.97 59.00 59.91 69.12 71.33
53.55 53.51 53.41 53.47 53.41 53.36 53.31 53.29 53.44 53.53 53.61 53.72 53.81 53.98 54.00 54.25 50.54 48.21 55.29 61.35 61.77 63.11 55.72 54.22 51.76 55.41 50.47 51.93 55.34 52.31 47.94 46.63 50.48 51.29 50.63 52.40 53.04 54.05 52.60 52.36 53.18 54.67 57.96 68.83 70.14
52.94 53.07 53.17 53.29 53.24 53.25 53.10 53.35 53.52 53.78 53.79 53.71 53.65 53.29 53.39 53.05 47.48 49.65 60.98 63.85 64.35 62.69 55.39 54.73 54.52 51.80 51.00 50.66 50.99 52.55 48.62 50.54 50.67 52.36 53.25 52.61 52.66 55.07 52.09 50.29 52.29 52.35 54.96 63.89 67.97
52.65 53.07 53.09 52.98 52.98 53.12 53.11 53.45 53.58 53.96 53.92 53.82 53.41 53.55 53.60 50.99 38.85 58.37 61.16 60.64 60.32 58.71 55.16 52.50 51.83 49.21 47.17 48.76 51.17 48.01 51.90 52.00 52.25 53.09 52.66 52.01 54.01 52.43 52.72 52.91 55.22 55.05 56.54 60.67 63.59
52.55 52.85 52.93 52.88 52.78 53.07 53.76 53.74 53.50 53.60 53.68 53.24 53.31 53.89 51.94 45.89 45.88 53.44 60.52 60.05 58.15 56.81 53.70 52.10 50.03 49.06 46.79 48.50 51.36 48.75 50.67 52.87 52.94 52.41 52.24 53.34 51.86 51.95 52.15 54.59 56.11 56.38 56.21 55.75 62.41
52.26 52.66 52.79 52.85 52.59 53.56 53.66 53.80 53.70 53.94 53.55 53.47 53.64 53.78 47.91 40.66 53.25 54.18 53.18 52.53 52.83 54.67 54.62 54.79 52.69 53.10 50.31 49.33 49.76 52.16 51.41 52.49 52.58 51.69 52.03 50.84 51.33 51.62 52.53 55.08 54.69 55.30 54.88 55.63 58.34
53.12 53.22 53.27 53.41 53.04 52.63 52.98 53.18 53.16 53.76 53.80 54.27 54.36 52.36 46.28 45.04 54.25 54.77 54.15 52.63 51.95 51.63 52.20 54.89 55.72 53.39 52.49 49.53 52.46 51.82 49.43 51.13 51.95 52.20 50.96 52.17 48.75 48.87 52.40 54.04 53.75 54.14 54.93 55.04 55.86
52.93 52.81 53.01 53.22 53.30 52.18 52.65 53.14 53.28 53.86 54.23 55.05 55.15 52.26 43.46 54.04 55.77 53.69 54.11 52.23 53.25 53.01 51.50 51.93 55.17 53.36 52.56 52.70 50.66 48.46 49.19 45.56 50.71 51.72 52.00 50.43 45.14 50.25 52.36 52.68 52.33 53.34 53.75 54.42 55.86
52.73 52.49 52.87 53.16 53.32 53.41 52.99 52.76 53.61 54.38 54.69 55.16 52.27 49.44 45.17 56.56 51.22 53.70 53.50 50.60 50.77 51.16 51.76 52.55 51.13 48.93 51.57 47.24 45.00 47.27 43.60 45.22 47.08 51.65 50.79 49.15 45.95 50.77 52.85 52.73 52.88 53.63 53.49 53.91 55.06
52.29 52.28 52.51 52.83 53.12 52.79 52.56 52.65 54.25 55.28 55.18 54.43 52.80 46.01 50.21 48.02 51.17 51.83 52.88 52.18 49.48 49.93 47.28 47.02 47.25 44.36 45.63 45.86 39.03 42.22 43.49 45.83 45.30 49.43 49.81 48.21 47.41 50.14 52.06 52.20 52.63 53.45 53.66 54.06 55.13
51.60 51.99 51.96 52.33 52.60 52.25 51.86 52.38 50.08 49.52 51.36 47.18 47.14 47.16 48.52 51.99 53.04 50.92 52.06 49.61 47.60 46.13 41.14 43.64 39.40 39.30 42.04 46.48 46.47 46.34 45.20 44.26 47.64 49.96 48.93 48.28 48.37 48.83 52.15 51.98 52.35 52.80 53.72 54.41 55.66
51.37 52.06 52.20 52.14 52.25 52.33 52.12 50.45 49.70 50.02 42.29 48.65 48.73 48.15 50.02 50.83 46.16 49.09 52.12 44.40 42.37 37.97 42.61 39.11 35.25 42.21 46.09 46.71 46.51 45.58 44.62 44.57 47.64 49.87 49.11 48.86 47.66 50.38 51.53 52.06 52.99 53.40 53.94 54.99 55.77
51.45 51.52 51.85 52.14 51.96 52.66 53.17 51.69 54.69 52.81 42.38 44.97 48.91 48.00 47.93 49.77 45.81 46.96 49.27 46.69 41.94 38.64 38.97 36.75 39.61 43.32 44.40 43.72 43.83 44.98 43.97 45.24 46.05 48.57 49.44 48.29 45.80 48.14 51.14 52.66 53.19 54.47 55.48 56.02 56.06
50.78 50.99 51.31 51.65 50.63 53.67 52.25 54.18 55.07 53.07 36.13 41.00 44.35 47.06 49.34 49.18 43.93 51.61 50.15 45.01 42.70 38.23 39.76 38.68 43.41 41.03 40.96 41.99 44.72 41.44 47.46 47.12 46.85 46.25 42.43 48.52 39.25 47.30 49.79 50.27 52.12 53.76 54.54 55.44 56.13
50.61 50.80 50.97 50.87 50.09 51.21 52.91 54.89 55.14 51.02 28.69 44.10 44.88 52.28 49.81 45.80 45.92 46.21 51.00 45.96 38.58 40.45 39.94 36.97 40.86 40.17 38.35 40.60 45.01 44.07 48.15 47.05 46.94 45.85 45.97 45.11 41.61 46.34 49.76 48.92 50.84 53.08 54.47 55.55 56.72
50.44 50.76 50.80 53.42 53.81 54.85 54.77 55.13 53.29 37.72 29.03 40.96 44.56 43.63 44.07 46.62 46.76 47.25 46.10 47.54 44.43 39.92 41.36 40.91 45.20 43.43 41.96 42.89 44.21 47.79 46.58 46.49 47.08 45.80 39.65 44.27 42.34 43.08 46.89 49.47 51.57 53.28 54.12 55.70 56.22
50.42 50.30 50.29 53.42 50.57 54.77 54.92 51.52 38.25 31.92 43.01 38.45 39.11 42.75 41.90 41.77 42.80 43.69 41.63 37.06 35.97 32.33 32.80 38.59 39.87 43.44 45.05 41.16 43.72 43.67 42.63 37.14 36.25 36.67 37.30 45.94 43.04 45.58 50.90 52.46 52.98 52.82 53.87 55.70 56.91
49.57 48.87 53.88 55.52 55.79 55.92 53.11 45.36 32.80 38.77 38.05 42.47 41.57 41.71 38.02 41.30 40.07 40.91 39.39 37.41 38.76 37.23 35.39 32.20 31.80 39.81 43.86 40.95 40.85 41.64 42.38 35.70 31.32 32.47 38.17 45.62 41.21 45.64 52.82 55.19 54.58 54.57 54.76 55.96 56.31
48.63 55.83 54.85 55.25 56.58 55.87 48.60 37.61 35.09 37.54 40.49 38.47 40.24 37.35 37.46 39.31 38.31 38.83 39.13 35.67 39.37 38.03 33.91 33.30 34.93 42.11 43.54 44.90 44.36 41.01 38.65 45.72 41.45 42.98 39.62 42.92 45.81 51.35 53.86 53.61 53.75 53.53 54.41 54.96 56.81
49.25 52.76 53.55 56.24 57.57 53.33 44.35 36.11 39.20 42.47 42.15 41.64 35.21 37.46 32.72 35.34 34.63 35.24 37.58 40.34 38.21 41.87 42.51 39.33 34.54 41.37 43.04 45.78 45.47 43.91 46.82 38.60 41.80 34.61 34.47 40.75 42.37 44.67 50.32 52.37 53.39 53.99 56.02 58.49 61.28
51.60 49.43 53.37 56.40 56.54 48.17 40.24 38.86 41.62 44.35 43.64 38.95 37.62 36.21 37.11 34.82 34.72 33.95 36.61 39.26 39.80 39.35 42.35 39.35 39.93 38.43 42.66 41.29 39.17 41.62 40.71 44.03 44.66 43.37 38.21 36.85 41.61 53.09 52.76 53.95 54.04 56.13 57.90 58.80 59.89
50.40 44.48 53.55 55.63 45.28 44.62 39.78 41.22 42.22 42.34 44.38 42.02 42.03 39.49 36.29 35.98 34.78 34.24 36.34 38.05 42.07 41.75 37.26 42.51 39.86 36.18 38.32 45.05 46.78 45.65 43.59 44.79 40.16 39.00 41.71 41.31 42.79 53.98 55.63 55.43 55.33 55.15 57.86 59.25 61.46
47.24 47.37 52.79 53.33 39.42 40.10 42.47 41.71 43.12 40.96 40.78 41.12 39.16 41.07 40.25 35.64 32.48 36.93 38.93 43.90 43.54 40.66 37.82 42.20 37.89 33.87 35.54 41.20 45.24 41.88 44.69 45.54 46.44 46.45 41.88 38.40 41.99 52.41 54.93 53.46 53.90 54.30 56.43 57.87 59.33
47.56 41.30 46.52 48.38 47.48 42.78 40.68 40.73 39.27 43.91 42.32 42.12 41.32 41.65 39.85 37.19 38.69 36.52 37.21 41.89 43.27 42.29 45.33 42.84 37.90 38.11 33.30 37.15 41.30 38.48 41.26 44.90 46.04 40.69 41.55 40.80 43.87 47.78 50.07 51.02 53.68 54.60 56.31 57.25 57.76
46.44 42.34 43.94 39.39 42.04 42.59 44.15 42.16 39.00 37.20 41.58 43.57 39.41 39.29 38.51 33.93 36.62 36.30 38.99 40.73 42.87 43.55 42.62 42.40 37.49 40.71 41.99 42.36 42.84 42.48 41.48 43.92 43.25 44.95 40.75 43.53 43.87 46.56 49.57 51.13 52.50 53.68 53.90 54.20 54.95
42.10 39.83 42.41 40.40 44.81 43.61 42.64 40.76 39.25 39.94 39.89 39.07 37.91 39.84 40.82 37.02 38.20 35.40 39.45 40.63 39.07 41.25 39.69 43.29 38.36 42.24 40.13 42.37 42.39 39.85 42.84 43.54 44.97 45.37 46.46 45.61 44.09 49.56 50.10 51.20 50.65 51.74 52.16 52.15 52.29
47.10 47.44 41.45 40.46 42.67 42.04 41.25 41.05 40.63 41.76 42.15 43.36 41.48 39.96 39.11 41.32 44.31 45.19 46.00 46.00 43.64 40.77 40.36 36.83 40.23 40.59 36.36 41.38 40.82 33.55 41.27 44.30 45.71 46.35 47.67 42.89 45.47 48.04 47.41 48.51 49.84 50.41 51.32 51.20 51.46

GFSSW_sfc_wetblb_147.txt.gz
Wetbulb
53.78 53.88 53.81 53.89 53.82 53.90 53.81 54.02 53.94 54.03 54.06 54.23 54.17 54.09 54.16 54.25 54.50 49.02 43.92 49.46 53.58 59.25 60.58 54.93 53.77 52.67 52.16 46.39 50.73 52.23 42.69 40.87 42.09 42.37 43.33 48.25 45.42 50.50 52.17 50.91 53.87 55.69 66.97 69.86 72.44
53.53 53.63 53.69 53.90 53.77 53.70 53.86 53.90 54.03 54.12 54.17 54.41 54.18 53.94 53.79 54.26 48.59 45.64 52.79 58.88 61.81 61.94 53.62 51.54 50.12 51.48 47.13 44.75 46.54 48.11 43.25 43.65 45.93 46.63 45.97 47.44 47.04 48.70 48.95 49.81 50.13 59.72 67.87 69.82 71.97
53.43 53.56 53.60 53.66 53.70 53.75 53.60 53.75 53.80 53.83 54.09 54.15 54.14 53.76 53.64 52.74 43.60 44.09 63.45 63.39 63.84 63.57 58.12 51.15 50.95 50.14 45.24 45.55 44.75 45.54 44.91 47.93 48.41 48.97 49.21 48.42 48.80 49.78 47.75 45.37 48.78 49.59 64.83 66.99 67.34
53.08 53.36 53.51 53.40 53.40 53.34 53.08 53.45 53.72 54.10 53.98 53.66 53.63 53.89 54.13 49.70 32.99 53.57 60.56 62.78 61.30 58.24 55.18 51.10 47.42 43.69 41.41 41.38 46.08 41.20 48.14 49.81 49.94 50.44 49.90 48.36 50.29 49.51 47.84 48.19 51.63 51.61 59.96 65.80 64.99
52.94 53.13 53.28 53.17 53.17 53.24 52.91 52.86 53.00 53.41 53.36 53.36 53.56 53.88 50.95 43.07 42.73 51.96 58.76 58.67 55.80 54.36 51.31 48.69 45.36 43.32 41.09 43.38 45.03 43.89 44.95 48.23 50.86 51.12 50.66 50.52 48.95 48.43 48.07 51.00 51.81 52.30 52.35 63.22 64.30
52.51 52.83 52.83 52.83 53.24 53.79 53.60 52.76 52.31 53.42 53.20 53.43 53.61 53.92 47.65 38.28 50.13 52.57 52.82 52.53 51.38 50.21 50.00 50.17 47.26 47.38 44.38 43.88 43.08 45.03 47.34 47.03 48.46 49.58 50.62 48.99 48.25 47.68 49.55 51.72 51.74 52.46 51.04 52.08 61.84
52.88 53.13 52.92 53.19 53.54 53.72 53.41 53.29 53.27 53.56 53.69 54.16 54.32 51.73 45.12 41.67 51.41 52.23 51.40 50.06 51.13 50.40 46.80 48.31 52.20 49.61 47.92 44.66 48.72 47.02 43.54 47.43 47.92 48.53 49.03 49.79 45.75 46.69 49.71 51.98 49.56 50.60 51.08 51.44 57.18
52.86 52.65 52.77 53.06 53.25 53.35 53.56 53.56 53.56 54.23 54.25 54.67 55.04 50.38 43.07 52.22 52.49 51.09 51.81 50.32 52.06 51.37 49.74 49.74 49.44 45.64 44.46 48.64 47.98 44.47 44.04 39.58 46.64 48.60 49.76 47.16 42.20 47.64 49.17 48.30 48.22 50.49 50.80 51.45 51.85
52.55 52.25 52.61 53.00 53.15 53.25 53.17 53.11 53.93 54.85 55.55 54.95 49.97 46.88 42.32 55.51 50.73 52.41 51.95 49.26 50.22 50.35 48.95 50.90 47.29 43.28 43.31 40.45 39.56 42.19 36.92 39.71 42.89 48.92 48.67 47.69 42.75 47.58 48.79 48.06 47.61 48.48 49.57 50.42 50.22
52.38 52.15 52.21 52.57 52.52 52.67 52.43 52.88 53.91 55.06 54.40 54.46 51.64 44.74 47.22 46.98 51.63 52.87 52.10 50.61 48.37 47.68 46.89 45.74 41.49 37.91 39.76 37.91 32.75 36.91 37.82 40.67 41.06 46.06 48.07 46.24 45.46 46.58 48.46 47.79 47.99 48.66 49.06 49.44 49.74
51.69 51.75 51.82 51.96 52.30 52.09 50.60 47.50 45.38 44.47 45.94 42.01 44.21 45.06 47.23 50.72 52.19 49.45 51.18 49.60 48.06 43.65 36.22 41.57 35.58 32.10 35.83 39.92 40.96 42.96 41.08 40.42 44.01 47.28 45.91 45.30 45.13 45.86 47.58 46.83 46.98 47.34 47.70 48.09 48.98
51.35 51.90 52.03 51.96 52.07 52.01 49.48 44.85 46.60 45.21 39.39 47.14 47.20 47.21 49.24 50.13 44.72 47.58 51.42 45.25 42.94 36.72 38.29 35.43 33.11 38.02 40.69 40.71 40.57 41.08 40.47 40.57 44.94 47.93 45.96 44.07 44.03 46.01 47.51 47.25 47.58 48.43 48.17 48.48 48.88
51.42 51.49 51.78 51.96 51.54 50.25 48.68 49.45 51.54 48.96 38.30 43.85 48.11 48.11 47.18 48.94 44.85 45.09 49.16 46.86 41.73 37.46 36.20 32.83 36.42 41.10 39.32 38.18 37.82 39.19 39.39 40.57 41.60 45.66 46.87 44.37 41.65 44.75 48.00 48.46 48.37 49.79 50.06 49.75 50.16
51.13 51.16 51.38 51.39 48.74 48.27 47.80 51.03 51.62 49.69 32.88 39.90 44.48 46.99 48.45 48.27 43.31 50.41 50.37 46.44 41.71 36.46 37.33 36.05 40.75 39.52 38.34 36.30 39.06 35.90 43.83 44.71 43.88 41.93 37.07 45.17 35.46 42.41 45.67 46.30 47.40 48.22 49.15 49.81 50.41
51.07 51.24 51.21 50.76 45.88 45.79 50.30 50.42 51.69 46.86 26.02 42.86 43.73 51.25 49.02 44.71 46.48 45.97 51.08 45.29 38.42 38.91 38.61 35.42 38.06 37.60 35.87 37.45 40.24 37.08 44.32 44.04 43.72 41.79 40.59 41.86 37.16 41.61 44.63 44.13 46.45 47.54 49.01 50.27 50.38
50.78 51.15 50.97 49.88 48.13 50.10 52.90 51.14 50.04 35.63 26.07 38.84 43.16 41.47 42.25 44.82 44.98 46.87 45.88 46.75 44.45 39.47 40.17 38.20 43.35 41.07 39.55 42.12 41.71 43.43 41.25 42.76 42.57 40.98 34.40 40.75 37.94 36.17 42.36 44.65 46.54 47.63 49.22 51.05 50.60
50.72 50.66 49.41 51.01 45.96 51.89 52.53 48.04 34.29 27.54 40.44 36.30 36.87 40.45 40.97 39.55 40.64 42.43 41.11 38.02 34.57 31.03 32.15 37.41 37.30 40.42 43.06 37.19 42.26 39.41 36.69 31.70 31.33 32.04 31.67 42.29 39.57 37.86 45.43 47.44 47.80 48.01 48.77 50.22 50.79
49.86 49.51 50.96 52.13 52.44 52.43 49.91 41.14 26.99 35.68 35.65 40.38 39.67 39.97 37.14 39.55 38.41 38.73 37.91 36.57 39.74 37.73 33.43 32.93 29.63 37.29 41.96 38.70 37.10 36.57 35.81 32.15 26.69 28.47 32.40 41.45 37.48 40.76 47.12 50.02 50.00 50.32 49.40 50.42 50.14
49.00 50.38 51.46 52.81 53.68 51.84 44.86 31.56 31.21 35.99 39.04 37.30 37.66 35.07 35.46 38.67 37.51 36.47 35.93 34.66 38.85 37.61 32.58 32.72 32.06 41.09 42.05 42.78 41.10 36.52 33.71 39.36 33.85 36.55 32.97 36.73 40.60 49.28 50.07 49.39 48.69 49.05 49.41 49.06 48.85
45.98 47.95 50.20 52.59 53.80 49.28 40.76 35.26 36.36 41.65 41.49 39.89 33.26 36.92 33.88 34.71 34.09 34.67 34.70 39.89 37.41 40.64 41.87 37.06 31.48 40.21 41.11 43.50 42.69 39.29 42.17 33.30 35.96 28.23 28.38 36.23 37.88 38.62 45.13 46.88 47.98 47.79 46.76 51.40 59.24
46.95 45.76 49.29 53.45 52.49 43.32 31.87 35.05 39.39 43.68 42.69 37.29 35.95 35.74 35.91 35.02 35.27 34.80 34.93 39.38 39.97 39.55 41.21 40.19 36.73 35.45 39.39 37.72 36.28 36.29 36.49 38.93 36.75 35.51 29.11 30.91 34.91 46.85 48.10 46.68 48.88 52.63 55.97 58.30 59.12
45.87 40.12 49.75 52.66 40.47 40.19 35.24 39.71 42.48 41.59 42.99 40.97 40.97 38.46 36.71 36.38 35.22 34.94 34.22 38.11 43.03 41.74 36.54 40.31 38.78 31.72 34.15 42.29 43.22 40.66 38.47 39.91 33.41 31.83 38.01 37.81 35.36 50.37 51.49 52.40 53.37 53.95 57.35 58.71 59.05
42.83 43.84 50.50 49.24 35.16 36.61 40.84 41.86 43.26 40.32 40.32 40.21 38.18 40.33 39.80 36.91 33.01 36.45 37.29 42.71 43.75 41.65 37.16 39.84 36.38 28.12 29.44 38.46 42.49 37.86 40.61 42.51 40.25 38.82 36.70 33.61 37.64 51.64 51.66 51.90 53.82 55.63 56.72 57.72 58.23
43.68 36.54 42.45 43.30 43.30 38.99 37.78 39.52 37.83 43.65 41.68 42.08 40.53 41.49 38.84 36.76 38.81 36.51 36.97 41.41 43.70 43.57 44.85 42.94 37.68 34.75 27.23 32.86 38.81 36.85 40.28 41.67 40.05 36.31 38.29 38.24 43.89 47.23 47.21 48.23 51.42 53.46 55.36 56.21 56.72
42.61 37.71 39.79 33.42 36.85 37.63 40.83 39.32 36.97 36.26 41.68 42.38 39.29 39.04 37.62 33.85 35.91 36.54 38.38 39.48 42.75 43.82 42.19 41.67 34.86 37.19 38.41 41.24 41.16 39.64 39.33 41.40 39.71 40.46 37.55 41.59 43.47 46.35 48.30 49.38 51.01 52.90 53.59 53.35 52.94
39.46 37.30 39.64 37.03 39.25 39.07 39.46 37.21 36.55 38.31 39.47 38.13 37.02 39.03 39.05 35.94 37.06 34.45 37.81 38.48 38.68 41.71 39.48 42.05 35.72 38.32 36.81 41.25 40.84 38.57 39.58 40.88 41.26 43.42 45.10 44.66 44.69 50.38 51.14 51.76 52.36 52.15 51.74 50.98 50.39
45.13 45.28 40.96 38.10 37.83 37.06 36.98 37.77 37.86 40.36 41.07 41.73 40.07 39.10 38.29 39.30 41.25 41.95 42.88 42.38 42.65 40.33 39.55 37.06 38.50 37.34 32.81 38.68 39.58 34.31 40.38 40.63 43.12 46.73 45.80 41.74 46.03 49.55 48.01 49.23 49.72 50.11 50.07 49.14 48.96